• In Hungary
  • List of Countries
  • For 7 days
  • Water Temperature
  • Satellite Maps
  • Weather Map
  • News
  • Weather Widgets
  • user-avatar
    Login

    Hourly Weather Rogin

    Today, 20 October, Saturday

    Time Temperature Precipitation Wind Pressure Humidity
    00:00 +10°C° 0 mm 3 mps 752 mmHg 93%
    01:00 +10°C° 0 mm 3 mps 752 mmHg 94%
    02:00 +9°C° 0 mm 2 mps 752 mmHg 94%
    03:00 +9°C° 0 mm 2 mps 752 mmHg 94%
    04:00 +8°C° 0 mm 2 mps 753 mmHg 94%
    05:00 +8°C° 0 mm 2 mps 753 mmHg 94%
    06:00 +8°C° 0 mm 3 mps 753 mmHg 91%
    07:00 +8°C° 0 mm 3 mps 753 mmHg 88%
    08:00 +8°C° 0 mm 3 mps 753 mmHg 85%
    09:00 +9°C° 0 mm 3 mps 753 mmHg 78%
    10:00 +11°C° 0 mm 3 mps 753 mmHg 71%
    11:00 +12°C° 0 mm 3 mps 754 mmHg 65%
    12:00 +13°C° 0 mm 3 mps 753 mmHg 61%
    13:00 +14°C° 0 mm 2 mps 753 mmHg 58%
    14:00 +14°C° 0 mm 2 mps 753 mmHg 54%
    15:00 +13°C° 0 mm 2 mps 753 mmHg 58%
    16:00 +12°C° 0 mm 2 mps 753 mmHg 62%
    17:00 +10°C° 0 mm 2 mps 753 mmHg 66%
    18:00 +9°C° 0 mm 2 mps 753 mmHg 68%
    19:00 +8°C° 0 mm 2 mps 753 mmHg 70%
    20:00 +7°C° 0 mm 2 mps 754 mmHg 72%
    21:00 +7°C° 0 mm 2 mps 754 mmHg 74%
    22:00 +6°C° 0 mm 2 mps 754 mmHg 76%
    23:00 +6°C° 0 mm 2 mps 754 mmHg 77%

    Tomorrow, 21 October, Sunday

    Time Temperature Precipitation Wind Pressure Humidity
    00:00 +6°C° 0 mm 2 mps 754 mmHg 79%
    01:00 +5°C° 0 mm 2 mps 754 mmHg 80%
    02:00 +5°C° 0 mm 2 mps 754 mmHg 82%
    03:00 +5°C° 0 mm 2 mps 754 mmHg 83%
    04:00 +4°C° 0 mm 2 mps 754 mmHg 85%
    05:00 +4°C° 0 mm 2 mps 754 mmHg 86%
    06:00 +4°C° 0 mm 2 mps 755 mmHg 85%
    07:00 +4°C° 0 mm 3 mps 755 mmHg 83%
    08:00 +4°C° 0 mm 3 mps 755 mmHg 81%
    09:00 +7°C° 0 mm 3 mps 756 mmHg 74%
    10:00 +8°C° 0 mm 3 mps 756 mmHg 67%
    11:00 +10°C° 0 mm 3 mps 756 mmHg 61%
    12:00 +10°C° 0 mm 3 mps 756 mmHg 58%
    13:00 +11°C° 0 mm 3 mps 756 mmHg 56%
    14:00 +11°C° 0 mm 3 mps 756 mmHg 54%
    15:00 +10°C° 0 mm 3 mps 756 mmHg 60%
    16:00 +9°C° 0 mm 3 mps 756 mmHg 66%
    17:00 +7°C° 0 mm 2 mps 756 mmHg 71%
    18:00 +7°C° 0 mm 2 mps 756 mmHg 75%
    19:00 +6°C° 0 mm 2 mps 757 mmHg 79%
    20:00 +5°C° 0 mm 2 mps 757 mmHg 82%
    21:00 +5°C° 0 mm 2 mps 757 mmHg 85%
    22:00 +5°C° 0 mm 2 mps 757 mmHg 87%
    23:00 +4°C° 0 mm 2 mps 757 mmHg 89%

    Day after tomorrow, 22 October, Monday

    Time Temperature Precipitation Wind Pressure Humidity
    00:00 +4°C° 0 mm 2 mps 757 mmHg 90%
    01:00 +4°C° 0 mm 2 mps 757 mmHg 91%
    02:00 +3°C° 0 mm 2 mps 757 mmHg 91%
    03:00 +4°C° 0 mm 1 mps 757 mmHg 92%
    04:00 +4°C° 0 mm 1 mps 757 mmHg 92%
    05:00 +4°C° 0 mm 1 mps 757 mmHg 92%
    06:00 +4°C° 0 mm 1 mps 757 mmHg 91%
    07:00 +5°C° 0 mm 1 mps 757 mmHg 89%
    08:00 +5°C° 0 mm 1 mps 757 mmHg 88%
    09:00 +7°C° 0 mm 1 mps 757 mmHg 80%
    10:00 +8°C° 0 mm 1 mps 756 mmHg 71%
    11:00 +10°C° 0 mm 1 mps 756 mmHg 63%
    12:00 +11°C° 0 mm 1 mps 756 mmHg 60%
    13:00 +11°C° 0 mm 1 mps 755 mmHg 56%
    14:00 +11°C° 0 mm 0 mps 754 mmHg 52%
    15:00 +11°C° 0 mm 1 mps 754 mmHg 57%
    16:00 +9°C° 0 mm 1 mps 754 mmHg 62%
    17:00 +8°C° 0 mm 1 mps 753 mmHg 67%
    18:00 +8°C° 0 mm 1 mps 753 mmHg 69%
    19:00 +7°C° 0 mm 1 mps 753 mmHg 72%
    20:00 +5°C° 0 mm 0 mps 753 mmHg 74%
    21:00 +6°C° 0 mm 1 mps 752 mmHg 75%
    22:00 +6°C° 0 mm 1 mps 752 mmHg 76%
    23:00 +5°C° 0 mm 1 mps 751 mmHg 77%

    23 October, Tuesday

    Time Temperature Precipitation Wind Pressure Humidity
    00:00 +5°C° 0 mm 1 mps 751 mmHg 77%
    01:00 +4°C° 0 mm 2 mps 750 mmHg 77%
    02:00 +4°C° 0 mm 2 mps 750 mmHg 77%
    03:00 +4°C° 0 mm 2 mps 750 mmHg 78%
    04:00 +4°C° 0 mm 2 mps 749 mmHg 79%
    05:00 +3°C° 0 mm 2 mps 749 mmHg 80%
    06:00 +4°C° 0 mm 2 mps 748 mmHg 81%
    07:00 +3°C° 0 mm 3 mps 748 mmHg 81%
    08:00 +3°C° 0 mm 3 mps 748 mmHg 82%
    09:00 +5°C° 0 mm 3 mps 748 mmHg 78%
    10:00 +7°C° 0 mm 3 mps 747 mmHg 73%
    11:00 +7°C° 0 mm 4 mps 747 mmHg 69%
    12:00 +7°C° 0 mm 4 mps 747 mmHg 71%
    13:00 +7°C° 0 mm 4 mps 746 mmHg 73%
    14:00 +7°C° 0 mm 4 mps 746 mmHg 74%
    15:00 +8°C° 0 mm 3 mps 746 mmHg 77%
    16:00 +7°C° 0 mm 3 mps 745 mmHg 80%
    17:00 +5°C° 0 mm 3 mps 745 mmHg 83%
    18:00 +5°C° 0 mm 3 mps 745 mmHg 85%
    19:00 +4°C° 0 mm 3 mps 744 mmHg 87%
    20:00 +3°C° 0 mm 3 mps 744 mmHg 89%
    21:00 +3°C° 0 mm 3 mps 743 mmHg 88%
    22:00 +3°C° 0 mm 3 mps 742 mmHg 87%
    23:00 +1°C° 0 mm 4 mps 741 mmHg 86%

    24 October, Wednesday

    Time Temperature Precipitation Wind Pressure Humidity
    00:00 +3°C° 0 mm 4 mps 740 mmHg 82%
    01:00 +2°C° 0 mm 5 mps 739 mmHg 79%
    02:00 +2°C° 0 mm 5 mps 738 mmHg 75%
    03:00 +2°C° 0.1 mm 6 mps 737 mmHg 74%
    04:00 +3°C° 0.1 mm 6 mps 736 mmHg 73%
    05:00 +3°C° 0.1 mm 7 mps 734 mmHg 72%
    06:00 +3°C° 0.4 mm 7 mps 733 mmHg 72%
    07:00 +2°C° 0.4 mm 8 mps 732 mmHg 73%
    08:00 +2°C° 0.4 mm 8 mps 731 mmHg 73%
    09:00 +4°C° 0.3 mm 8 mps 730 mmHg 75%
    10:00 +5°C° 0.3 mm 8 mps 729 mmHg 77%
    11:00 +5°C° 0.3 mm 8 mps 728 mmHg 78%
    12:00 +5°C° 0.4 mm 8 mps 728 mmHg 80%
    13:00 +5°C° 0.4 mm 7 mps 727 mmHg 81%
    14:00 +5°C° 0.4 mm 6 mps 727 mmHg 83%
    15:00 +5°C° 0.6 mm 6 mps 727 mmHg 84%
    16:00 +5°C° 0.6 mm 6 mps 727 mmHg 85%
    17:00 +6°C° 0.6 mm 5 mps 727 mmHg 86%
    18:00 +5°C° 0.2 mm 5 mps 728 mmHg 85%
    19:00 +5°C° 0.2 mm 5 mps 728 mmHg 84%
    20:00 +5°C° 0.2 mm 5 mps 729 mmHg 83%
    21:00 +5°C° 0 mm 5 mps 729 mmHg 83%
    22:00 +3°C° 0 mm 5 mps 729 mmHg 83%
    23:00 +4°C° 0 mm 4 mps 730 mmHg 84%

    25 October, Thursday

    Time Temperature Precipitation Wind Pressure Humidity
    00:00 +4°C° 0.1 mm 4 mps 730 mmHg 84%
    01:00 +3°C° 0.1 mm 4 mps 730 mmHg 84%
    02:00 +3°C° 0.1 mm 4 mps 730 mmHg 84%
    03:00 +2°C° 0.2 mm 5 mps 730 mmHg 83%
    04:00 +2°C° 0.2 mm 5 mps 731 mmHg 83%
    05:00 +2°C° 0.2 mm 5 mps 731 mmHg 82%
    06:00 +2°C° 0.2 mm 5 mps 731 mmHg 81%
    07:00 +2°C° 0.2 mm 6 mps 732 mmHg 81%
    08:00 +2°C° 0.2 mm 6 mps 732 mmHg 81%
    09:00 +2°C° 0.1 mm 6 mps 733 mmHg 77%
    10:00 +3°C° 0.1 mm 7 mps 733 mmHg 73%
    11:00 +3°C° 0.1 mm 7 mps 734 mmHg 69%
    12:00 +3°C° 0 mm 7 mps 734 mmHg 67%
    13:00 +4°C° 0 mm 7 mps 735 mmHg 65%
    14:00 +4°C° 0 mm 7 mps 735 mmHg 64%
    15:00 +4°C° 0 mm 6 mps 736 mmHg 66%
    16:00 +3°C° 0 mm 5 mps 737 mmHg 68%
    17:00 +4°C° 0 mm 4 mps 737 mmHg 70%
    18:00 +4°C° 0 mm 4 mps 738 mmHg 71%
    19:00 +4°C° 0 mm 4 mps 738 mmHg 71%
    20:00 +4°C° 0 mm 4 mps 738 mmHg 72%
    21:00 +3°C° 0 mm 3 mps 739 mmHg 73%
    22:00 +3°C° 0 mm 3 mps 739 mmHg 75%
    23:00 +2°C° 0 mm 3 mps 739 mmHg 77%
    Show more